{"data":{"norad_id":68823,"epoch":"2026-09-19T00:10:02.704800Z","epoch_age_seconds":169002,"freshness":"FRESH","line1":"1 68823U 26089X   26262.00697575  .00016805  00000+0  52157-3 0  9991","line2":"2 68823  97.2846 107.8432 0001603  99.2923 260.8501 15.33451953 23033","mean_motion":15.33451953,"eccentricity":0.0001603,"inclination_deg":97.2846,"raan_deg":107.8432,"arg_perigee_deg":99.2923,"mean_anomaly_deg":260.8501,"bstar":0.00052157,"rev_number":2303,"period_min":93.905778865965,"perigee_km":464.42544870433,"apogee_km":466.61952593597,"semimajor_km":6843.6594873201,"source":"CELESTRAK","updated_at":"2026-09-20T09:00:44.012028Z"}}